www.pogodaiklimat.ru

Погода и климат >> Архив погоды >> Россия >> Краснодарский край >> Горная Карусель 1500


ПОГОДА в Горная Карусель 1500

  • Прогноз погоды в Горная Карусель 1500
  • Монитор погоды в Горная Карусель 1500

АРХИВ ПОГОДЫ в Горная Карусель 1500

Время (UTC), дата Ветер
(напр.,м/с)
 
Видим.   Явления Облачность Т
(С)
Тd
(С)
f
(%)
Тe
(С)
Тes
(С)
Комфортность P
(гПа)
Po
(гПа)
Тmin
(С)
Tmax
(С)
R
(мм)
R24
(мм)
S
(см)
21 12.07 СЗ 1 н/о н/о +11.2 +10.6 96 +11 +11 1009.2 852.9
03 13.07 штиль 0 н/о н/о +10.6 +9.2 91 +10 +10 1008.6 852.0 +10.6
06 13.07 С 1 н/о н/о +10.9 +10.4 97 +10 +10 1009.2 852.8 +10.0
09 13.07 СВ 1 н/о н/о +11.7 +10.1 90 +11 +11 1009.9 853.7
12 13.07 С 3 н/о н/о +12.2 +9.9 86 +11 +11 1010.1 854.1
15 13.07 штиль 0 н/о н/о +11.6 +10.5 93 +11 +11 1010.8 854.5 +13.5
18 13.07 штиль 0 н/о н/о +10.5 +10.3 99 +10 +10 1011.7 854.7
21 13.07 ЮЗ 1 н/о н/о +9.8 +8.1 89 +9 +9 1011.9 854.4
00 14.07 штиль 0 н/о н/о +9.9 +6.1 77 +9 +9 1010.8 853.4
03 14.07 штиль 0 н/о н/о +10.1 +5.5 73 +10 +10 1010.5 853.2 +9.3
06 14.07 С 1 н/о н/о +12.6 +6.4 66 +13 +13 1009.4 853.6 +8.8
09 14.07 С 1 н/о н/о +14.0 +8.0 67 +14 +14 1008.2 853.3
12 14.07 С 2 н/о н/о +16.8 +9.7 63 +17 +17 1005.7 852.6
15 14.07 ЮВ 1 н/о н/о +14.6 +9.2 70 +15 +15 1006.6 852.3 +17.0
18 14.07 Ю 1 н/о н/о +13.9 +7.7 66 +14 +14 1006.7 852.0
21 14.07 ЮЗ 2 н/о н/о +14.2 +6.1 58 +14 +14 1005.3 850.9
00 15.07 штиль 0 н/о н/о +13.6 +3.7 51 +13 +13 1004.0 849.4
06 15.07 СЗ 1 н/о н/о +15.4 +5.6 52 +16 +16 1002.2 848.8 +13.2
09 15.07 Ю 3 н/о н/о +13.9 +7.9 67 +13 +13 1002.1 848.1
12 15.07 Ю 1 н/о н/о +10.7 +10.7 100 +10 +10 1005.1 849.2
15 15.07 ЮЗ 2 н/о н/о +12.4 +8.9 79 +12 +12 1004.7 849.6 +16.8 8
18 15.07 СЗ 1 н/о н/о +11.1 +10.6 97 +11 +11 1006.6 850.7
21 15.07 штиль 0 н/о н/о +11.1 +9.7 91 +10 +10 1006.6 850.6
00 16.07 штиль 0 н/о н/о +10.4 +10.2 99 +10 +10 1006.6 850.3
03 16.07 штиль 0 н/о н/о +10.6 +10.6 100 +10 +10 1007.0 850.8 +10.3 19
06 16.07 штиль 0 н/о н/о +10.7 +10.5 99 +10 +10 1007.9 851.6 +10.3
09 16.07 С 2 н/о н/о +11.6 +11.4 99 +10 +10 1008.2 852.3
12 16.07 СЗ 3 н/о н/о +11.9 +11.7 99 +10 +10 1009.0 853.2
15 16.07 штиль 0 н/о н/о +11.6 +11.4 99 +11 +11 1010.1 853.9 +13.4 30
18 16.07 ЮЗ 1 н/о н/о +11.3 +10.4 94 +11 +11 1011.3 854.7
21 16.07 штиль 0 н/о н/о +11.0 +8.4 84 +10 +10 1011.1 854.3
00 17.07 Ю 2 н/о н/о +12.6 +6.0 64 +12 +12 1009.2 853.4
03 17.07 Ю 1 н/о н/о +13.5 +4.9 56 +14 +14 1008.1 852.9 +10.4
06 17.07 ЮВ 1 н/о н/о +16.1 +7.1 55 +17 +17 1006.0 852.4 +10.4
09 17.07 штиль 0 н/о н/о +18.7 +11.0 61 +19 +19 1003.8 852.0
15 17.07 ЮВ 1 н/о н/о +17.1 +15.1 88 +18 +18 1003.8 851.5 +20.2
18 17.07 Ю 2 н/о н/о +15.5 +13.2 86 +15 +15 1005.0 851.3
21 17.07 З 1 н/о н/о +15.1 +11.5 79 +16 +16 1005.1 851.4
00 18.07 Ю 1 н/о н/о +15.5 +9.8 69 +16 +16 1004.6 851.1
03 18.07 СЗ 2 н/о н/о +13.7 +11.4 86 +13 +13 1005.4 851.0 +13.7 5
06 18.07 ЮЗ 2
{11}
н/о н/о +11.4 +11.1 98 +10 +10 1008.0 852.0 +11.4
09 18.07 ЮВ 1 н/о н/о +13.3 +12.2 93 +13 +13 1007.4 852.5
15 18.07 штиль 0 н/о н/о +16.6 +15.3 92 +16 +16 1006.3 853.4 +18.3 79

 

Местоположение метеостанции Горная Карусель 1500 (Краснодарский край, Россия): широта 43.65 долгота 40.29 высота над уровнем моря 1465 м.

В архиве по умолчанию представлена погода в Горная Карусель 1500 за последнюю неделю. Архивные данные за месяц целиком и за предыдущие месяцы, начиная с января 2011 года, Вы можете получить, выбрав интересующий диапазон дат из раскрывающегося списка и нажав кнопку "Ввод!".


*Определитесь, кто Вы:
робот инопланетянин человек

Внимание! Время в таблицах - всемирное. Для получения местного времени необходимо прибавить поправку, которая равна 3 ч.

Смотрите также архив погоды в соседних городах и на ближайших метеорологических станциях:

Погода на Кордоне Лаура (Краснодарский край, Россия) (6 км)
Погода в Красной Поляне (Краснодарский край, Россия) (8 км)
Погода в Кепше (Краснодарский край, Россия) (20 км)
Погода в Имеретинке (Краснодарский край, Россия) (39 км)
Погода в Сочи аэропорт (Адлере) (Краснодарский край, Россия) (40 км)
Погода в Гузерипле (Адыгея, Россия) (41 км)
Погода в Сочи (Краснодарский край, Россия) (43 км)
Погода в Солох Ауле (Краснодарский край, Россия) (56 км)
Погода в Кичмае (Краснодарский край, Россия) (66 км)
Погода в Псебае (Краснодарский край, Россия) (66 км)

Пояснения к столбцам:

Ветер - указаны скорость ветра в м/с - средняя за 10 мин, порывы в срок и между сроками (в фигурных скобках) и направление, откуда дует ветер: С - северный, СВ - северо-восточный, В - восточный, ЮВ - юго-восточный, Ю - южный, ЮЗ - юго-западный, З - западный, СЗ - северо-западный.
Видимость - горизонтальная дальность видимости в метрах или километрах. При видимости от 1 до 10 км при отсутствии осадков обычно наблюдается дымка, при ухудшении видимости до 1 км и менее - туман. В сухую погоду видимость может ухудшаться дымом, пылью или мглою.
Явления - указаны атмосферные явления, наблюдавшиеся в срок или в последний час перед сроком; фигурными скобками обозначены явления, наблюдавшиеся между сроками (за 1-3 часа до срока); квадратными скобками обозначены град или гололедные отложения с указанием их диаметра в мм.
Облачность - указаны через наклонную черту общая и нижняя облачность в баллах и высота нижней границы облаков в метрах; квадратными скобками обозначены формы облаков: Ci - перистые, Cs - перисто-слоистые, Cc - перисто-кучевые, Ac - высококучевые, As - высокослоистые, Sc - слоисто-кучевые, Ns - слоисто-дождевые, Cu - кучевые, Cb - кучево-дождевые. Подробнее классификацию облаков см. в Атласе облаков (PDF).
T - Температура воздуха - температура, измеренная на высоте 2 м над землей.
Td - Температура точки росы - температура, при понижении до которой содержащийся в воздухе водяной пар достигнет насыщения.
f - Относительная влажность воздуха - влажноcть воздуха, измеренная на высоте 2 м над землей.
Te - Эффективная температура - температура, которую ощущает одетый по сезону человек в тени. Характеристика душности погоды. При расчете учитывается влияние влажности воздуха и скорости ветра на теплоощущения человека.
Tes - Эффективная температура на солнце - температура, которую ощущает человек, с поправкой на солнечный нагрев. Характеристика знойности погоды. Зависит от высоты солнца над горизонтом, облачности и скорости ветра. Ночью, в пасмурную погоду, а также при ветре 12 м/с и более поправка равна нулю.
P - Атмосферное давление - приведенное к уровню моря атмосферное давление.
Po - Атмосферное давление - измеренное на уровне метеостанции атмосферное давление.
Tmin - Минимальная температура - минимум температуры воздуха на высоте 2 м над землей.
Tmax - Максимальная температура - максимум температуры воздуха на высоте 2 м над землей.
R - Количество осадков - Количество выпавших осадков за период времени, мм. При наведении курсора мыши на число - период времени, за который выпало указанное количество осадков.
R24 - Количество осадков - Количество выпавших осадков за 24 часа, мм.
S - Снежный покров - Высота снежного покрова, см. При наведении курсора мыши на число - состояние снежного покрова и степень покрытия местности в баллах.